Location: Pedimozza
(42.0500°N, 9.3500°E)
Time: 20:09:29
(UTC+00:00)

Cosmos 2315 Rocket - Pass Details

Date: 19 August 2019
Orbit: 965 x 1003 km, 82.9° (Epoch: 14 October)

Event Time Altitude Azimuth Distance (km) Brightness Sun altitude
Exits shadow 21:21:15 42° 220° (SW) 1,403 4.6 -28.2°
Maximum altitude 21:23:21 62° 280° (W) 1,120 4.4 -28.4°
Drops below altitude 10° 21:29:39 10° 1° (N) 2,771 7.0 -29.1°
Sets 21:32:14 0° 5° (N) 3,719 7.8 -29.4°
